Regional Weather Roundup
Issued by NWS

Home | Current Version | Previous Version | Text Only | Print | Product List | Glossary Off
Versions: 1 2 3 4 5 6 7 8 9 10 11 12 13 14 15 16 17 18 19 20 21 22 23 24 25 26 27 28 29 30 31 32 33 34 35 36 37 38 39 40 41 42 43 44 45 46 47 48 49 50

000
ASUS45 KSLC 251510
RWRUT

UTAH REGIONAL WEATHER ROUNDUP
NATIONAL WEATHER SERVICE SALT LAKE CITY UT
800 AM MST TUE NOV 25 2014

UTZ001>011-023>025-251600-

NORTHERN UTAH

CITY           SKY/WX    TMP DP  RH WIND       PRES   REMARKS
HILL AFB       CLOUDY    34  20  55 S16       30.34S WCI  24
LOGAN          CLOUDY    34  25  69 E6        30.32S WCI  29
OGDEN          CLOUDY    35  20  54 SE9       30.35R WCI  28
PROVO AIRPORT  CLOUDY    30  25  80 S3        30.41R
SALT LAKE CITY MOCLDY    36  19  50 SE9       30.35S WCI  29
VERNAL         PTCLDY    23  15  71 NW3       30.26F
WENDOVER       CLEAR     27  19  74 NW5       30.33S WCI  21
HEBER CITY     CLOUDY    23  18  80 CALM      30.35R
WEST JORDAN    CLOUDY    36  21  55 S18       30.36R WCI  25

$$

UTZ012>022-026-027-251600-

SOUTHERN/CENTRAL UTAH

CITY           SKY/WX    TMP DP  RH WIND       PRES   REMARKS
BLANDING       CLOUDY    25  11  54 E5        30.49R WCI  19
BRYCE CANYON   PTCLDY    16   4  59 W5        30.41R WCI   9
CEDAR CITY     PTCLDY    16  10  77 NE3       30.43S
DELTA          CLOUDY    27  23  82 CALM      30.42R
MILFORD        CLEAR     22  12  65 S13       30.41F WCI  10
MOAB/CYNLANDS  PTCLDY    23   9  55 E5        30.38S WCI  17
PRICE          CLOUDY    23  12  62 CALM      30.34R
ST GEORGE      MOSUNNY   30   7  37 CALM      30.52S
KANAB          PTCLDY    18   1  49 E8        30.51S WCI   7

$$

REGIONAL REPORTS     COLORADO/ARIZONA

CITY           SKY/WX    TMP DP  RH WIND       PRES   REMARKS
CRAIG, CO      CLOUDY    20  14  77 E10       30.24F WCI   9
GRAND JUNCTION CLOUDY    24  15  68 E7        30.38S WCI  16
RIFLE          CLOUDY    18  14  84 CALM      30.38S
MONTROSE       CLOUDY    22  13  68 CALM      30.39F
CORTEZ         CLOUDY    21  14  74 NE5       30.42R WCI  15
PAGE, AZ       NOT AVBL
GRAND CANYON   MOCLDY     9  -6  50 CALM      30.47R
KINGMAN        CLEAR     30  -1  26 SE9       30.47R WCI  22
FLAGSTAFF      CLEAR     17   0  47 NE3       30.45R

$$

REGIONAL REPORTS    NEVADA/IDAHO/WYOMING

CITY           SKY/WX    TMP DP  RH WIND       PRES   REMARKS
LAS VEGAS, NV  CLEAR     43  14  31 SW7       30.44R
ELY            CLOUDY    22  22 100 S8        30.46R WCI  12
ELKO           CLOUDY    32  23  69 CALM      30.43R
POCATELLO, ID  CLOUDY    39  33  79 SW24G36   30.20F WCI  28
BURLEY         CLOUDY    41  29  62 SW8       30.22R
EVANSTON, WY   CLOUDY    26  17  68 SW31      30.20F WCI   9
ROCK SPRINGS   CLOUDY    25  13  60 W32G40    30.09F WCI   8
KEMMERER       CLOUDY    27  21  80 W26G33    30.16R WCI  11

$$



USA.gov is the U.S. government's official web portal to all federal, state and local government web resources and services.